Regional Weather Roundup
Issued by NWS

Home | Current Version | Previous Version | Graphics & Text | Print | Product List | Glossary On
Versions: 1 2 3 4 5 6 7 8 9 10 11 12 13 14 15 16 17 18 19 20 21 22 23 24 25 26 27 28 29 30 31 32 33 34 35 36 37 38 39 40 41 42 43 44 45 46 47 48 49 50
000
ASUS45 KPSR 252010
RWRAZ

ARIZONA REGIONAL HOURLY WEATHER ROUNDUP
NATIONAL WEATHER SERVICE TUCSON AZ
100 PM MST SUN JUN 25 2017

NOTE: FAIR INDICATES FEW OR NO CLOUDS BELOW 12,000 FEET WITH NO
SIGNIFICANT WEATHER AND/OR OBSTRUCTIONS TO VISIBILITY.

AZZ001>003-036-252100-
NORTHWEST ARIZONA

CITY           SKY/WX    TMP DP  RH WIND       PRES   REMARKS
BULLHEAD CITY  SUNNY    115  34   6 S10       29.75F HX 107
KINGMAN        MOSUNNY  108  39   9 SW22G29   30.01F HX 102
$$

AZZ004>008-015-016-018-252100-
NORTH CENTRAL ARIZONA

CITY           SKY/WX    TMP DP  RH WIND       PRES   REMARKS
GRAND CANYON   CLOUDY    85  30  13 SW16      30.31S
PRESCOTT       MOSUNNY   96  36  12 SW14G25   30.17F
FLAGSTAFF      MOSUNNY   84  32  15 NE7G17    30.33S
PAYSON         CLEAR     93  46  20 VRB6G17   30.23F
$$

AZZ009>014-017-252100-
NORTHEAST ARIZONA

CITY           SKY/WX    TMP DP  RH WIND       PRES   REMARKS
WINSLOW        MOSUNNY   97  31   9 E8        30.14F
SAINT JOHNS    MOSUNNY   92  30  11 W14       30.21F
WINDOW ROCK    PTSUNNY   92  32  12 W18G28    30.29F
SHOW LOW       PTSUNNY   86  37  17 SW8       30.31F
$$

AZZ023-252100-
GREATER PHOENIX AREA

CITY           SKY/WX    TMP DP  RH WIND       PRES   REMARKS
PHOENIX        MOSUNNY  109  46  12 CALM      29.83F HX 105
BUCKEYE          N/A    109  43  10 S5        29.84F HX 104
GLENDALE       MOSUNNY  109  45  11 VRB6      29.85F HX 104
LUKE AFB       MOSUNNY  109  44  11 W3        29.83F HX 104
DEER VALLEY    SUNNY    109  44  11 S12G17    29.86F HX 104
SCOTTSDALE     SUNNY    107  49  14 SW6       29.88F HX 104
MESA-FALCON    MOSUNNY  109  50  14 W8        29.87F HX 106
MESA-GATEWAY   MOSUNNY  108  48  13 NW5       29.87F HX 104
CHANDLER       SUNNY    108  45  12 VRB6      29.85F HX 103
$$

AZZ027-028-252100-
SOUTHWEST MARICOPA COUNTY AND PINAL COUNTY

CITY           SKY/WX    TMP DP  RH WIND       PRES   REMARKS
CASA GRANDE    SUNNY    110  47  12 NW8       29.87F HX 106
$$

AZZ503-504-507>509-252100-
SOUTHEAST ARIZONA

CITY           SKY/WX    TMP DP  RH WIND       PRES   REMARKS
TUCSON         SUNNY    105  44  12 W9        29.99F HX 100
DAVIS-MONTHAN  MOSUNNY  104  43  12 N7        29.98F
NOGALES        SUNNY    102  46  15 NW6       30.09F
SIERRA VISTA   MOSUNNY   96  40  14 CALM      30.18F
DOUGLAS        MOSUNNY   98  44  15 SW7       30.11F
SAFFORD        MOSUNNY   91  52  26 SW6       30.06F
$$

AZZ020-021-025-026-031-252100-
SOUTHWEST ARIZONA

CITY           SKY/WX    TMP DP  RH WIND       PRES   REMARKS
YUMA           SUNNY    111  54  15 S14       29.79F HX 109
$$

CAZ031-033-041-043-047-048-061-252100-
SOUTHERN CALIFORNIA

CITY           SKY/WX    TMP DP  RH WIND       PRES   REMARKS
DOWNTOWN L.A.  SUNNY     85  62  46 VRB5      29.87F
L.A. AIRPORT   SUNNY     76  61  59 W14       29.89F
SAN DIEGO      MOSUNNY   72  63  73 W12       29.92S
BURBANK        SUNNY     99  58  25 CALM      29.88F
ONTARIO        MOSUNNY  101  55  21 VRB7      29.88F
RIVERSIDE      SUNNY    101  59  24 VRB6      29.87F HX 101
PALM SPRINGS   SUNNY    114  46  10 S3        29.78F HX 109
EL CENTRO NAS  SUNNY    111  48  12 SE7       29.75F HX 107
IMPERIAL       SUNNY    112  58  17 E10       29.74F HX 112
BLYTHE         SUNNY    113  47  11 SE16G24   29.77F HX 108
NEEDLES          N/A    118  26   4 S8        29.78  HX 108
$$

NVZ020-UTZ003-252100-
SOUTHERN NEVADA-UTAH

CITY           SKY/WX    TMP DP  RH WIND       PRES   REMARKS
LAS VEGAS      MOSUNNY  109   7   2 E8        29.90F
SALT LAKE CITY SUNNY     90  40  17 E6        30.16F
$$

NMZ009-TXZ055-252100-
NEW MEXICO-WEST TEXAS

CITY           SKY/WX    TMP DP  RH WIND       PRES   REMARKS
ALBUQUERQUE    PTSUNNY   87  48  25 VRB3      30.23F
EL PASO        MOSUNNY   91  59  33 VRB5      30.17F
$$


........................KEY........................
SKY/WX - SKY CONDITION/WEATHER
TMP    - TEMPERATURE IN FAHRENHEIT
DP     - DEWPOINT IN FAHRENHEIT
RH     - RELATIVE HUMIDITY IN PERCENT
WIND   - DIRECTION AND SPEED IN MILES PER HOUR (MPH)
VRB    - VARIABLE WIND DIRECTION
PRES   - MEAN SEA LEVEL PRESSURE IN INCHES OF MERCURY
         F - FALLING PRESSURE   R - RISING PRESSURE
         S - STEADY PRESSURE
VSB    - VISIBILITY IN MILES
HX     - HEAT INDEX IN FAHRENHEIT
WCI    - WIND CHILL INDEX IN FAHRENHEIT
TC     - TEMPERATURE IN CELSIUS WHICH IS ALSO KNOWN AS
         TEMPERATURE IN CENTIGRADE
AFB    - AIR FORCE BASE
         LUKE AFB IS LUKE AIR FORCE BASE
         DAVIS-MONTHAN IS DAVIS-MONTHAN AIR FORCE BASE
NAS    - NAVAL AIR STATION
         EL CENTRO NAS IS EL CENTRO NAVAL AIR STATION
N/A    - NOT AVAILABLE




USA.gov is the U.S. government's official web portal to all federal, state and local government web resources and services.